Weather Roundup
Issued by NWS Springfield, MO

Home | Current Version | Previous Version | Text Only | Print | Product List | Glossary On
Versions: 1 2 3 4 5 6 7 8 9 10 11 12 13 14 15 16 17 18 19 20 21 22 23 24 25 26 27 28 29 30 31 32 33 34 35 36 37 38 39 40 41 42 43 44 45 46 47 48 49 50
000
NZUS99 KSGF 211857
HRRSGF

HOURLY WEATHER
NATIONAL WEATHER SERVICE SPRINGFIELD MO
100 PM CST TUE FEB 21 2017

......SGF CWA......

CITY           SKY/WX    TMP DP  RH WIND       PRES   REMARKS
SPRINGFIELD    LGT RAIN  59  57  93 N6        29.91F FOG
JOPLIN         CLOUDY    66  56  70 NW9       29.94F
WEST PLAINS    CLOUDY    59  56  89 NE7       29.89R
ROLLA          CLOUDY    61  60  97 NE9       29.90F
BRANSON        PTSUNNY   57  57 100 N9G17     29.89F

......SURROUNDING SGF CWA......

CITY           SKY/WX    TMP DP  RH WIND       PRES   REMARKS
CHANUTE        SUNNY     69  49  48 N9G18     29.96F
PARSONS        MOSUNNY   70  50  49 N8G18     29.96F
COFFEYVILLE    MOSUNNY   69  52  54 N7        29.96F
EMPORIA        SUNNY     65  43  44 N8        29.99F
HARRISON AR    CLOUDY    58  56  93 N9        29.88F

......KANSAS AND MISSOURI......

CITY           SKY/WX    TMP DP  RH WIND       PRES   REMARKS
KANSAS CTY INT MOSUNNY   68  44  42 N7        29.96F
SEDALIA        SUNNY     72  53  51 VRB5      29.93F
ST JOSEPH      SUNNY     64  42  44 VRB3      29.95F
ST LOUIS       CLOUDY    63  58  83 NE5       29.93S
WICHITA        MOSUNNY   66  36  32 N7        30.00F
TOPEKA         SUNNY     67  40  37 NW5       29.97F
OLATHE         SUNNY     66  50  56 VRB7      29.96F

......TENNESSEE......

CITY           SKY/WX    TMP DP  RH WIND       PRES   REMARKS
MEMPHIS        NOT AVBL
NASHVILLE      PTSUNNY   69  52  54 S23G33    29.93F

......ARKANSAS.......

CITY           SKY/WX    TMP DP  RH WIND       PRES   REMARKS
FAYETTEVILLE   CLOUDY    63  56  78 NW13      29.89F
FT SMITH       CLOUDY    64  55  72 W13       29.88F
LITTLE ROCK    LGT RAIN  60  60 100 NW6       29.83F

......OKLAHOMA.......

CITY           SKY/WX    TMP DP  RH WIND       PRES   REMARKS
TULSA          MOSUNNY   69  52  54 N12       29.94F
PONCA CITY       N/A     67  43  41 NW9       29.99F
MCALESTER      PTSUNNY   64  53  67 N12       29.94F
OKLAHOMA CITY  SUNNY     67  44  43 N13       30.00F

......IOWA............

CITY           SKY/WX    TMP DP  RH WIND       PRES   REMARKS
DES MOINES     NOT AVBL
QUAD CITIES    MOSUNNY   65  44  46 CALM      29.91F

......ILLINOIS........

CITY           SKY/WX    TMP DP  RH WIND       PRES   REMARKS
QUINCY         NOT AVBL
CHICAGO        CLOUDY    62  54  74 SW9       29.91F



USA.gov is the U.S. government's official web portal to all federal, state and local government web resources and services.